Location: Albany
(35.0170°S, 117.8920°E)
Time: 01:23:40
(UTC+08:00)

Explorer 7 - Pass Details

Date: 29 January 2021
Orbit: 484 x 677 km, 50.3° (Epoch: 01 March)

Event Time Altitude Azimuth Distance (km) Brightness Sun altitude
Rises 21:53:59 0° 238° (WSW) 2,894 11.6 -26.6°
Reaches altitude 10° 21:56:30 10° 246° (WSW) 1,948 10.4 -27.0°
Enters shadow 21:59:26 30° 279° (W) 1,058 8.4 -27.4°
Maximum altitude 22:00:33 35° 311° (NW) 936 - -27.5°
Drops below altitude 10° 22:04:21 10° 18° (NNE) 1,815 - -28.0°
Sets 22:06:37 0° 27° (NNE) 2,668 - -28.3°
